Regional Weather Roundup
Issued by NWS

Home | Current Version | Previous Version | Text Only | Print | Product List | Glossary Off
Versions: 1 2 3 4 5 6 7 8 9 10 11 12 13 14 15 16 17 18 19 20 21 22 23 24 25 26 27 28 29 30 31 32 33 34 35 36 37 38 39 40 41 42 43 44 45 46 47 48 49 50

000
ASUS45 KBOU 141807
RWRCO

WEATHER ROUNDUP FOR COLORADO
NATIONAL WEATHER SERVICE DENVER/BOULDER CO
1200 PM MDT SUN SEP 14 2014

NOTE: "FAIR" INDICATES FEW OR NO CLOUDS BELOW 12000 FEET WITH NO
SIGNIFICANT WEATHER AND/OR OBSTRUCTIONS TO VISIBILITY.

COZ001>005-013-030-031-141900-
...NORTHWEST COLORADO...

CITY           SKY/WX    TMP DP  RH WIND       PRES   REMARKS
CRAIG          SUNNY     75  41  29 NW6       30.18F
HAYDEN         SUNNY     70  36  28 N7        30.20F
MEEKER         SUNNY     75  41  29 SE5       30.20F
MOUNT WERNER   NOT AVBL
STEAMBOAT SPGS SUNNY     68  36  30 NW3       30.22F
WALDEN         MOSUNNY   70  30  23 SW21      30.27F
$$

COZ006>008-011-141900-
...WEST CENTRAL VALLEYS...

CITY           SKY/WX    TMP DP  RH WIND       PRES   REMARKS
GRAND JUNCTION SUNNY     76  35  22 S7        30.14F
MONTROSE       SUNNY     75  42  30 N8        30.22F
EAGLE          MOSUNNY   64  30  27 CALM      30.27F
RIFLE          SUNNY     68  39  34 CALM      30.19F
DELTA          SUNNY     78  37  23 CALM      30.18F
NUCLA          SUNNY     73  41  31 N5        30.26F
$$

COZ017>023-064>068-141900-
...SOUTHWEST COLORADO...

CITY           SKY/WX    TMP DP  RH WIND       PRES   REMARKS
DURANGO        SUNNY     73  45  36 E7        30.29F
CORTEZ         SUNNY     76  47  35 E3        30.23F
PAGOSA SPRINGS NOT AVBL
TELLURIDE      MOSUNNY   66  34  30 W7        30.42F
WOLF CREEK PAS SUNNY     50  36  57 S12G20    30.62S
$$

COZ009-010-012-014-032>034-037-058>063-141900-
...CENTRAL COLORADO...

CITY           SKY/WX    TMP DP  RH WIND       PRES   REMARKS
ASPEN          MOSUNNY   70  32  24 NE6       30.31F
BUENA VISTA    NOT AVBL
COPPER MTN     MOSUNNY   54  19  26 W22G40    30.59S
BERTHOUD PASS  PTSUNNY   45  45 100 W31G40    30.59S
COTTONWOOD PAS MOSUNNY   64  23  20 W7G24     30.45F
GUNNISON       SUNNY     63  30  29 CALM      30.38F
KREMMLING      SUNNY     66  32  28 CALM      30.29F
LEADVILLE      PTSUNNY   59  22  24 NW14G22   30.44F
SALIDA         PTSUNNY   75  32  20 NE5       30.37F
SUNLIGHT       SUNNY     61  36  39 CALM      30.54R
WILKERSON PASS NOT AVBL
$$

COZ069>075-141900-
...SAN LUIS VALLEY/SANGRE DE CRISTO MOUNTAINS...

CITY           SKY/WX    TMP DP  RH WIND       PRES   REMARKS
ALAMOSA        SUNNY     69  41  36 MISG      30.34F
LA VETA PASS   NOT AVBL
SAGUACHE       NOT AVBL
$$

COZ035-036-038>040-141900-
...NORTHERN COLORADO FRONT RANGE...

CITY           SKY/WX    TMP DP  RH WIND       PRES   REMARKS
DENVER INTL AP PTSUNNY   81  33  17 SW10      30.11F
DMNS CITY PARK   N/A     82  35  18 SW6       30.11S
AURORA         PTSUNNY   79  34  19 S5        30.14F
FRONT RANGE AP PTSUNNY   82  36  18 W9        30.13F
ERIE MUNI ARPT MOSUNNY   81  37  21 SW3       30.08F
BOULDER MUN AP MOSUNNY   82  37  20 E5        30.08F
CENTENNIAL     MOSUNNY   79  33  19 SW10      30.15F
BROOMFIELD     MOSUNNY   77  39  25 SE5       30.13F
FORT COLLINS   MOSUNNY   70  52  52 SE9       30.07F
LONGMONT       MOSUNNY   86  34  15 S6        30.07F
$$

COZ041-046-047-076>085-087-088-141900-
...PIKES PEAK/PALMER DIVIDE AND SOUTHERN FOOTHILLS...

CITY           SKY/WX    TMP DP  RH WIND       PRES   REMARKS
COLO. SPRINGS  MOSUNNY   81  23  11 VRB3      30.20F
A. F. ACADEMY  SUNNY     77  26  15 NW6G20    30.21F
ELLICOTT       NOT AVBL
FALCON         SUNNY     78  25  14 W6G17     30.25F
FORT CARSON    SUNNY     81  28  14 NE6       30.17F
LIMON          SUNNY     82  28  14 W15       30.12F
MONUMENT HILL  MOSUNNY   73  28  19 W7G16     30.24F
TRINIDAD       SUNNY     80  39  23 SE5       30.18F
$$

COZ042>045-048>051-090-091-141900-
...NORTHEAST COLORADO...

CITY           SKY/WX    TMP DP  RH WIND       PRES   REMARKS
GREELEY ARPT   MOSUNNY   73  48  40 S5        30.07F
AKRON          SUNNY     73  43  33 VRB5      30.08F
BURLINGTON     SUNNY     70  55  59 VRB7      30.08F
WRAY           SUNNY     71  55  57 SE12      30.06F
STERLING       SUNNY     70  54  56 E5        30.04F
HOLYOKE        SUNNY     72  55  56 SE15G21   30.05F
FORT MORGAN    SUNNY     73  45  36 CALM      30.08F
$$

COZ086-089-092>099-141900-
...SOUTHEAST COLORADO...

CITY           SKY/WX    TMP DP  RH WIND       PRES   REMARKS
PUEBLO         SUNNY     84  39  20 S7        30.09F
LA JUNTA       SUNNY     81  44  27 W8        30.08F
LAMAR          SUNNY     75  52  44 CALM      30.06F
SPRINGFIELD      N/A     81  53  37 S13       30.11F
$$


USA.gov is the U.S. government's official web portal to all federal, state and local government web resources and services.